Overview Statistics Trail Chart Weather Telemetry Raw packets
 

This is the latest recevied weather packets stored in our database for station/object NR0A-4. If no packets are shown the sender has not sent any weather packets the latest 10 day(s).

<< 1 2 3 4 5 6 >>
Time Temp. Humidity Pressure Rain* Wind** Luminosity Snow
1788649804 31.67° C 63% 1012.4 hPa 0 mm - 51 W/m² -
1788649505 31.67° C 63% 1012.4 hPa 0 mm - 54 W/m² -
1788649204 31.67° C 64% 1012.4 hPa 0 mm - 63 W/m² -
1788648905 31.67° C 62% 1012.3 hPa 0 mm - 237 W/m² -
1788648604 31.67° C 62% 1012.3 hPa 0 mm - 294 W/m² -
1788648305 32.22° C 61% 1012.1 hPa 0 mm - 308 W/m² -
1788648005 32.22° C 61% 1012 hPa 0 mm - 325 W/m² -
1788647704 32.22° C 60% 1011.9 hPa 0 mm - 345 W/m² -
1788647404 32.22° C 61% 1011.9 hPa 0 mm - 357 W/m² -
1788647104 32.22° C 61% 1011.8 hPa 0 mm - 369 W/m² -
1788646804 32.22° C 61% 1011.9 hPa 0 mm - 390 W/m² -
1788646504 32.22° C 61% 1011.9 hPa 0 mm - 397 W/m² -
1788646204 32.22° C 60% 1011.8 hPa 0 mm - 420 W/m² -
1788645905 32.22° C 60% 1011.8 hPa 0 mm - 427 W/m² -
1788645604 32.22° C 60% 1011.8 hPa 0 mm - 438 W/m² -
1788645305 32.22° C 60% 1011.8 hPa 0 mm - 450 W/m² -
1788645005 32.22° C 60% 1011.7 hPa 0 mm - 468 W/m² -
1788644705 32.22° C 60% 1011.6 hPa 0 mm - 487 W/m² -
1788644405 32.22° C 58% 1011.7 hPa 0 mm - 494 W/m² -
1788644104 32.22° C 60% 1011.8 hPa 0 mm - 515 W/m² -
1788643804 32.22° C 59% 1011.9 hPa 0 mm - 520 W/m² -
1788643504 32.22° C 59% 1012 hPa 0 mm - 529 W/m² -
1788643205 32.22° C 59% 1012.1 hPa 0 mm - 540 W/m² -
1788642904 31.67° C 58% 1012 hPa 0 mm - 554 W/m² -
1788642605 31.67° C 59% 1011.9 hPa 0 mm - 563 W/m² -

* Rain latest hour (hover to see other rain measurements)
** Current wind speed in m/s (hover to see current wind gust speed)